Location: Diebersbach
(48.5163°N, 8.0558°E)
Time: 14:20:45
(UTC+00:00)

USA 306 - Pass Details

Date: 20 June 2021
Orbit: 566 x 573 km, 54.0° (Epoch: 16 July)

Event Time Altitude Azimuth Distance (km) Brightness Sun altitude
Exits shadow 01:31:13 21° 219° (SW) 1,319 4.1 -13.1°
Maximum altitude 01:33:56 59° 145° (SE) 658 3.0 -12.8°
Drops below altitude 10° 01:38:08 10° 66° (ENE) 1,873 6.4 -12.5°
Sets 01:40:24 0° 62° (ENE) 2,771 7.5 -12.3°
